Location: Barrhead
(54.1232°N, 114.4020°W)
Time: 10:16:33
(UTC+00:00)

Envisat - Pass Details

Date: 15 July 2022
Orbit: 763 x 765 km, 98.2° (Epoch: 12 August)

Event Time Altitude Azimuth Distance (km) Brightness Sun altitude
Rises 10:22:45 0° 30° (NNE) 3,244 8.7 -7.0°
Reaches altitude 10° 10:27:56 10° 76° (ENE) 2,308 6.4 -6.6°
Maximum altitude 10:28:21 10° 80° (E) 2,301 6.3 -6.5°
Drops below altitude 10° 10:28:47 10° 85° (E) 2,307 6.2 -6.5°
Sets 10:33:55 0° 130° (SE) 3,223 6.2 -6.0°
